Location: Le Perthus
(42.4646°N, 2.8633°E)
Time: 22:04:04
(UTC+00:00)

Daily predictions for brighter satellites

Satellite Brightness Start Highest point End
(mag) Time Altitude Azimuth Time Altitude Azimuth Time Altitude Azimuth
Cosmos 372 Rocket 4.0 17:58:09 10° S 18:03:19 66° ESE 18:08:30 10° NNE
Cosmos 1707 3.2 18:02:36 10° N 18:06:13 37° ENE 18:09:47 10° SSE
CZ-2C R/B 3.0 18:03:34 10° WSW 18:06:34 21° SSW 18:09:25 10° SE
Cosmos 1844 4.3 18:03:50 10° SSE 18:08:55 34° ESE 18:13:58 10° NE
ISS -2.0 18:07:03 10° W 18:10:04 29° NNW 18:13:05 10° NE
NOSS 3-4 (A) 4.4 18:05:52 10° SSE 18:10:18 22° ESE 18:14:52 10° ENE
NOSS 3-4 (C) 4.4 18:06:01 10° SSE 18:10:24 22° ESE 18:14:57 10° ENE
Meteor 1-12 Rocket 4.5 18:07:09 10° SSE 18:12:48 51° E 18:18:24 10° NNE
Cosmos 1300 Rocket 3.8 18:14:00 10° SSE 18:18:13 47° E 18:22:29 10° NNE
Sich 1 Rocket 3.6 18:18:00 10° S 18:22:30 87° E 18:27:06 10° N
Cosmos 2298 Rocket 4.0 18:19:19 10° S 18:24:35 68° ESE 18:29:54 10° NNE
CENTAUR R/B 3.5 18:18:29 10° NNW 18:26:15 50° NE 18:34:43 10° ESE
Iridium 4 Rocket 4.4 18:21:50 10° SSW 18:26:53 58° W 18:32:24 10° N
CSL-04 Debris 4.2 18:23:50 10° SSE 18:29:07 61° ENE 18:34:26 10° N
Helios 1A Rocket 4.1 18:26:59 10° S 18:30:57 48° W 18:35:00 10° NNW
CSL-04 Rocket 3.8 18:25:44 10° SSE 18:31:04 60° ENE 18:36:30 10° N
ATLAS 2AS CENTAUR R/B 3.5 18:25:29 10° S 18:32:31 37° ESE 18:39:34 10° NE
Okean 2 Rocket 3.0 18:28:16 10° S 18:32:44 71° E 18:37:11 10° NNE
YAOGAN 1 2.6 18:29:22 10° SSE 18:33:40 89° WSW 18:38:02 10° NNW
Cosmos 1025 Rocket 3.1 18:31:20 10° N 18:35:42 60° E 18:40:02 10° SSE
ATLAS 3B R/B 4.0 18:32:39 10° NNW 18:38:00 24° NNE 18:42:35 13° E
Cosmos 1513 Rocket 4.4 18:33:56 10° S 18:40:11 83° E 18:46:22 10° N
Abrixas rocket 2.9 18:38:03 10° NW 18:40:41 33° NNE 18:42:11 19° ENE
CREW DRAGON DEMO-1 DEB 4.0 18:40:05 10° NW 18:42:49 30° NNE 18:44:16 20° ENE
Cosmos 1125 Rocket 3.5 18:40:01 10° S 18:45:13 64° ESE 18:50:30 10° NNE
Cosmos 1536 Rocket 3.6 18:41:04 10° N 18:45:29 57° E 18:49:53 10° SSE
SJ-6B 4.0 18:48:31 20° E 18:49:09 21° ENE 18:52:02 10° NNE
CZ-4 R/B 2.7 18:47:17 10° S 18:51:19 45° W 18:55:21 10° NNW
Cosmos 2150 Rocket 4.3 18:46:47 10° SSW 18:52:10 76° WNW 18:57:39 10° NNE
SJ-11-01 4.2 18:47:37 10° SSE 18:52:19 84° ENE 18:57:02 10° NNW
CZ-2C R/B 3.3 18:48:00 10° S 18:53:20 80° WSW 18:58:59 10° NNW
Cosmos 1464 Rocket 4.1 18:47:25 10° S 18:53:33 82° W 18:59:47 10° N
Okean-O 4.2 18:51:05 10° SSW 18:55:12 37° W 18:59:20 10° NNW
USA 238 DEB 3.9 18:48:23 10° NW 18:55:41 88° NE 19:03:14 10° SE
USA 238 3.9 18:48:30 10° NW 18:55:48 88° NE 19:03:18 10° SE
Cosmos 2285 Rocket 4.0 18:49:41 10° S 18:55:53 63° ESE 19:02:09 10° NNE
Cosmos 1674 2.9 18:54:05 10° N 18:57:50 48° E 19:00:17 19° SSE
Cosmos 1092 Rocket 4.3 18:53:01 10° N 18:58:54 45° ENE 19:04:17 12° SSE
MOS 1 Rocket 3.0 19:00:05 10° NNE 19:04:28 89° ESE 19:08:44 10° SSW
TSX-5 3.9 19:03:36 10° S 19:07:10 51° ESE 19:11:41 10° NE
ARGOS 3.1 19:03:35 10° SSE 19:08:56 83° ENE 19:14:21 10° NNW
Cosmos 1048 Rocket 4.4 19:07:59 10° NNW 19:13:18 66° WSW 19:18:36 10° S
Cosmos 1733 3.4 19:13:48 39° SE 19:14:40 46° E 19:18:22 10° NNE
CZ-2C R/B 2.8 19:09:21 10° NNE 19:14:49 53° E 19:20:17 10° S
Cosmos 2151 Rocket 4.3 19:11:04 10° SSW 19:15:26 55° W 19:19:53 10° N
MOS 1 4.5 19:13:05 24° SE 19:16:24 52° ENE 19:21:57 10° N
IRIS 4.1 19:14:08 10° WSW 19:18:00 63° S 19:18:07 62° SSE
Lacrosse 5 rocket 3.9 19:16:26 10° NNW 19:18:37 13° N 19:20:43 10° NE
NOSS 3-2 (A) 4.5 19:12:33 10° NW 19:20:09 65° WSW 19:28:37 10° SSE
Cosmos 2082 Rocket 3.7 19:16:53 10° N 19:20:44 18° NE 19:21:17 18° NE
Shenzhou-11 Module 3.8 19:19:51 10° WSW 19:20:33 18° WSW 19:20:33 18° WSW
BREEZE-M DEB (TANK) 3.3 19:19:30 10° WNW 19:22:50 74° SSW 19:27:36 26° SE
DMSP B5D2-2 4.1 19:19:26 10° NNE 19:24:39 55° E 19:29:48 10° S
Meteor 1-15 Rocket 4.4 19:20:25 10° SSW 19:26:03 77° W 19:31:49 10° N
Cosmos 494 Rocket 4.1 19:20:49 10° NNW 19:26:06 79° WSW 19:29:53 19° SSE
Cosmos 1805 3.2 19:22:39 10° S 19:26:33 83° W 19:30:29 10° N
OBJECT-B 3.0 19:28:48 16° NNE 19:28:48 16° NNE 19:29:41 10° N
Ariane Rocket 2.9 19:28:06 28° SSE 19:30:49 78° ENE 19:35:56 10° N
SL-08 RB Rocket 3.7 19:27:52 21° S 19:30:55 83° W 19:35:28 10° NNW
Milstar 3 Cent rocket 3.7 19:26:18 10° SW 19:31:27 21° S 19:32:39 19° SSE
H-2A R/B 3.1 19:27:36 10° S 19:32:21 44° W 19:37:14 10° NNW
USA 234 4.0 19:38:13 30° SSE 19:38:13 30° SSE 19:42:40 10° S
Cosmos 1269 Rocket 3.9 19:32:45 10° NNW 19:38:05 74° ENE 19:39:33 48° SE
MetOp-A 4.0 19:40:20 40° SSE 19:42:20 79° ENE 19:47:43 10° N
USA 186 2.5 19:42:34 51° W 19:42:34 51° W 19:45:43 10° NNW
Cosmos 1626 2.9 19:39:26 10° N 19:42:02 42° N 19:42:02 42° N
Cosmos 1844 Rocket 4.4 19:40:21 10° WSW 19:45:21 33° NW 19:50:24 10° N
COSMOS 2406 3.2 19:41:38 10° NNW 19:47:15 59° ENE 19:47:55 55° E
ISS -1.3 19:45:20 10° NW 19:47:39 17° N 19:47:46 17° N
Cosmos 2278 Rocket 3.1 19:43:42 10° S 19:51:32 33° NE 19:54:44 10° NNE
Meteor 1-22 Rocket 4.3 19:48:00 10° S 19:53:53 89° W 20:00:00 10° N
Lacrosse 4 Rocket 3.4 19:51:11 10° N 19:52:52 18° NNE 19:52:52 18° NNE
Meteor 2-5 Rocket 4.0 19:52:00 10° NNW 19:57:40 68° W 20:00:46 28° S
Okean 1 Rocket 4.3 19:54:57 10° SSW 19:59:12 41° WNW 20:03:28 10° N
Meteor 1-24 Rocket 3.7 19:54:23 10° N 20:00:01 85° W 20:01:37 50° S
NOSS 3-4 (A) 3.8 19:54:42 10° SW 20:00:32 62° NW 20:06:47 10° NNE
NOSS 3-4 (C) 3.8 19:54:48 10° SW 20:00:38 63° NW 20:06:53 10° NNE
Resurs 01 Rocket 3.0 20:03:26 30° NNE 20:03:26 30° NNE 20:05:54 10° N
SL-14 R/B 4.2 19:59:09 10° NNW 20:01:55 43° NNW 20:01:55 43° NNW
Cosmos 1833 Rocket 2.7 20:06:42 10° NNW 20:11:54 66° NNE 20:11:54 66° NNE
CENTAUR R/B 3.9 20:09:17 10° NW 20:17:12 50° WSW 20:22:00 26° S
SPOT 3 Rocket 3.7 20:20:50 68° NNW 20:20:50 68° NNW 20:25:22 10° NNW
ATLAS 2AS CENTAUR R/B 3.5 20:15:26 10° SW 20:23:15 59° NW 20:31:03 10° NNE
ATLAS 3B R/B 2.6 20:22:46 10° NW 20:29:42 83° NE 20:29:50 82° ENE
Cosmos 1655 Rocket 4.2 20:32:40 10° N 20:37:50 62° N 20:37:50 62° N
Lacrosse 5 rocket 4.1 20:55:02 10° NNW 20:56:20 17° NNW 20:56:20 17° NNW
Cosmos 2082 Rocket 3.5 20:59:50 10° NNW 21:03:08 37° NNW 21:03:08 37° NNW
Cosmos 2278 Rocket 4.2 21:33:01 24° WNW 21:33:39 24° NW 21:38:12 10° N
